TimeEST,TemperatureF,Dew PointF,Humidity,Sea Level PressureIn,VisibilityMPH,Wind Direction,Wind SpeedMPH,Gust SpeedMPH,PrecipitationIn,Events,Conditions,WindDirDegrees,DateUTC
12:53 AM,19.0,6.1,57,30.12,10.0,Variable,6.9,-,N/A,,Clear,0,2013-02-10 05:53:00
1:53 AM,19.0,5.0,54,30.15,10.0,Variable,3.5,-,N/A,,Clear,0,2013-02-10 06:53:00
2:53 AM,15.1,3.9,61,30.17,10.0,Variable,4.6,-,N/A,,Clear,0,2013-02-10 07:53:00
3:53 AM,12.9,1.0,59,30.20,10.0,WNW,4.6,-,N/A,,Clear,300,2013-02-10 08:53:00
4:53 AM,12.0,-0.9,56,30.23,10.0,Variable,4.6,-,N/A,,Clear,0,2013-02-10 09:53:00
5:53 AM,10.0,-2.9,56,30.24,10.0,Calm,Calm,-,N/A,,Clear,0,2013-02-10 10:53:00
6:53 AM,8.1,-4.0,58,30.27,10.0,Calm,Calm,-,N/A,,Clear,0,2013-02-10 11:53:00
7:53 AM,12.9,-2.9,49,30.30,10.0,Calm,Calm,-,N/A,,Clear,0,2013-02-10 12:53:00
8:53 AM,18.0,-2.9,40,30.31,10.0,Calm,Calm,-,N/A,,Clear,0,2013-02-10 13:53:00
9:53 AM,23.0,-2.9,32,30.33,10.0,Variable,6.9,-,N/A,,Clear,0,2013-02-10 14:53:00
10:53 AM,27.0,-2.0,29,30.34,10.0,Variable,6.9,-,N/A,,Clear,0,2013-02-10 15:53:00
11:53 AM,30.9,-2.0,24,30.33,10.0,Variable,3.5,-,0.03,,Clear,0,2013-02-10 16:53:00
12:53 PM,33.1,-2.0,22,30.32,10.0,WNW,5.8,-,0.06,,Clear,300,2013-02-10 17:53:00
1:53 PM,35.1,-2.0,21,30.31,10.0,Variable,6.9,-,0.06,,Clear,0,2013-02-10 18:53:00
2:53 PM,36.0,-2.0,20,30.30,10.0,Variable,3.5,-,0.04,,Clear,0,2013-02-10 19:53:00
3:53 PM,35.1,-0.9,22,30.31,10.0,Calm,Calm,-,0.02,,Clear,0,2013-02-10 20:53:00
4:53 PM,28.0,9.0,45,30.34,10.0,Variable,3.5,-,0.01,,Clear,0,2013-02-10 21:53:00
5:53 PM,21.0,10.0,63,30.35,10.0,Calm,Calm,-,N/A,,Clear,0,2013-02-10 22:53:00
6:53 PM,16.0,8.1,71,30.36,10.0,Calm,Calm,-,N/A,,Clear,0,2013-02-10 23:53:00
7:53 PM,15.1,7.0,70,30.36,10.0,Calm,Calm,-,N/A,,Clear,0,2013-02-11 00:53:00
8:53 PM,12.0,5.0,73,30.35,10.0,Calm,Calm,-,N/A,,Clear,0,2013-02-11 01:53:00
9:53 PM,10.9,5.0,77,30.34,10.0,Calm,Calm,-,N/A,,Clear,0,2013-02-11 02:53:00
10:53 PM,7.0,1.9,80,30.36,10.0,Calm,Calm,-,N/A,,Clear,0,2013-02-11 03:53:00
11:53 PM,5.0,1.0,84,30.36,10.0,Calm,Calm,-,N/A,,Clear,0,2013-02-11 04:53:00